ICE205 EKCH-ENGM

Flight info

Callsign ICE205
Flight time N/A
Altitude 36000
Route GOLGA DCT AMSEV DCT TUKMU DCT ZOL DCT GUNPA/M076F360 DCT 63N010W DCT ING DCT NASBU DCT KFV
Aircraft A21N/M-SDE2E3FGHIRWXY/LB1

Departure

Time N/A
Airport Copenhagen Kastrup Airport (EKCH)

Arrival

Time 2026-04-30 19:10
Airport Oslo-Gardermoen International Airport (ENGM)
Time Latitude Longitude Altitude Speed Heading
2026-04-30 18:18 55.98895 12.21867 15735 ft 335 kts 323°
2026-04-30 18:18 56.00715 12.19313 16274 ft 335 kts 332°
2026-04-30 18:18 56.02903 12.17996 16786 ft 329 kts 354°
2026-04-30 18:18 56.05160 12.17552 17356 ft 330 kts 356°
2026-04-30 18:19 56.07425 12.17170 17861 ft 332 kts 356°
2026-04-30 18:19 56.09738 12.16741 18402 ft 334 kts 355°
2026-04-30 18:19 56.12054 12.16270 18950 ft 335 kts 355°
2026-04-30 18:19 56.14388 12.15765 19325 ft 337 kts 355°
2026-04-30 18:20 56.16734 12.15236 19392 ft 337 kts 354°
2026-04-30 18:20 56.19037 12.14703 19397 ft 337 kts 354°
2026-04-30 18:20 56.21365 12.14156 19401 ft 336 kts 354°
2026-04-30 18:20 56.23691 12.13603 19402 ft 337 kts 354°
2026-04-30 18:21 56.26014 12.13048 19403 ft 337 kts 354°
2026-04-30 18:21 56.28317 12.12494 19403 ft 337 kts 354°
2026-04-30 18:21 56.30657 12.11930 19405 ft 338 kts 354°
2026-04-30 18:21 56.32969 12.11371 19404 ft 337 kts 354°
2026-04-30 18:22 56.35298 12.10809 19403 ft 337 kts 354°
2026-04-30 18:22 56.39959 12.09679 19395 ft 337 kts 354°
2026-04-30 18:22 56.42296 12.09110 19393 ft 337 kts 354°
2026-04-30 18:23 56.44601 12.08548 19393 ft 338 kts 354°
2026-04-30 18:23 56.46937 12.07980 19393 ft 338 kts 354°
2026-04-30 18:23 56.49279 12.07407 19412 ft 341 kts 354°
2026-04-30 18:23 56.51654 12.06827 19775 ft 345 kts 354°
2026-04-30 18:24 56.56398 12.05664 20866 ft 345 kts 353°
2026-04-30 18:24 56.58772 12.05082 21315 ft 347 kts 353°
2026-04-30 18:24 56.61189 12.04488 21767 ft 349 kts 353°
2026-04-30 18:25 56.63584 12.03898 22199 ft 351 kts 353°
2026-04-30 18:25 56.68450 12.02696 23051 ft 355 kts 353°
2026-04-30 18:25 56.70896 12.02092 23469 ft 357 kts 353°
2026-04-30 18:26 56.75828 12.00874 24366 ft 363 kts 353°
2026-04-30 18:26 56.78331 12.00254 24841 ft 365 kts 353°
2026-04-30 18:26 56.80851 11.99628 25277 ft 367 kts 353°
2026-04-30 18:27 56.85965 11.98354 26024 ft 371 kts 353°
2026-04-30 18:27 56.88549 11.97709 26353 ft 374 kts 353°
2026-04-30 18:28 56.93706 11.96418 27013 ft 378 kts 353°
2026-04-30 18:28 56.96312 11.95764 27331 ft 380 kts 353°
2026-04-30 18:28 57.01557 11.94449 27939 ft 384 kts 353°
2026-04-30 18:29 57.04216 11.93781 28225 ft 386 kts 353°
2026-04-30 18:29 57.12227 11.91759 28369 ft 387 kts 353°
2026-04-30 18:30 57.22868 11.89060 28364 ft 386 kts 353°
2026-04-30 18:31 57.30839 11.87028 28364 ft 387 kts 353°
2026-04-30 18:32 57.38835 11.84980 28363 ft 387 kts 353°
2026-04-30 18:33 57.46836 11.82924 28362 ft 386 kts 353°
2026-04-30 18:33 57.54801 11.80866 28367 ft 386 kts 353°
2026-04-30 18:34 57.62778 11.78797 28371 ft 386 kts 353°
2026-04-30 18:35 57.68082 11.77416 28371 ft 387 kts 353°
2026-04-30 18:35 57.73420 11.76023 28368 ft 387 kts 353°
2026-04-30 18:36 57.81448 11.73920 28364 ft 386 kts 352°
2026-04-30 18:37 57.89397 11.71826 28362 ft 386 kts 352°
2026-04-30 18:37 57.94702 11.70432 28363 ft 386 kts 354°
2026-04-30 18:38 58.00094 11.70131 28359 ft 386 kts
2026-04-30 18:38 58.05432 11.70174 28358 ft 386 kts
2026-04-30 18:39 58.10801 11.70227 28348 ft 386 kts
2026-04-30 18:39 58.16215 11.70294 28345 ft 386 kts
2026-04-30 18:40 58.21608 11.70376 28346 ft 386 kts
2026-04-30 18:40 58.26987 11.70477 28337 ft 386 kts
2026-04-30 18:41 58.32334 11.70580 28337 ft 386 kts 360°
2026-04-30 18:41 58.35012 11.70046 28332 ft 386 kts 349°
2026-04-30 18:41 58.37616 11.68859 28336 ft 387 kts 346°
2026-04-30 18:42 58.42828 11.66304 28329 ft 386 kts 346°
2026-04-30 18:42 58.50612 11.62681 28321 ft 386 kts 347°
2026-04-30 18:45 58.79384 11.49620 28298 ft 387 kts 347°
2026-04-30 18:46 58.84613 11.47231 28294 ft 387 kts 347°
2026-04-30 18:46 58.89874 11.44824 28287 ft 387 kts 347°
2026-04-30 18:47 58.95099 11.42419 28131 ft 381 kts 347°
2026-04-30 18:47 58.97672 11.41231 27615 ft 379 kts 347°
2026-04-30 18:47 59.00238 11.40046 27006 ft 379 kts 347°
2026-04-30 18:47 59.02772 11.38874 26472 ft 376 kts 346°
2026-04-30 18:48 59.05302 11.37702 25951 ft 374 kts 346°
2026-04-30 18:48 59.07824 11.36533 25433 ft 371 kts 346°
2026-04-30 18:48 59.10347 11.35360 24916 ft 369 kts 346°
2026-04-30 18:48 59.12836 11.34201 24504 ft 363 kts 345°
2026-04-30 18:49 59.15241 11.33083 24315 ft 353 kts 345°
2026-04-30 18:49 59.17621 11.32224 24118 ft 343 kts 350°
2026-04-30 18:49 59.20002 11.31823 23896 ft 336 kts 356°
2026-04-30 18:49 59.22317 11.31842 23521 ft 332 kts 359°
2026-04-30 18:50 59.24592 11.31982 23069 ft 331 kts 359°
2026-04-30 18:50 59.26893 11.32142 22608 ft 330 kts 359°
2026-04-30 18:50 59.29196 11.32305 22162 ft 328 kts 359°
2026-04-30 18:50 59.31471 11.32464 21720 ft 326 kts 359°
2026-04-30 18:51 59.33741 11.32624 21273 ft 325 kts 359°
2026-04-30 18:51 59.35983 11.32780 20842 ft 323 kts 359°
2026-04-30 18:51 59.38237 11.32937 20415 ft 321 kts 359°
2026-04-30 18:51 59.40465 11.33091 19993 ft 320 kts 359°
2026-04-30 18:52 59.42684 11.33245 19560 ft 318 kts 359°
2026-04-30 18:52 59.44902 11.33399 19127 ft 317 kts 359°
2026-04-30 18:52 59.47080 11.33550 18701 ft 316 kts 359°
2026-04-30 18:52 59.49298 11.33704 18265 ft 314 kts 359°
2026-04-30 18:53 59.51457 11.33854 17851 ft 313 kts 359°
2026-04-30 18:53 59.53631 11.34004 17433 ft 312 kts 359°
2026-04-30 18:53 59.55821 11.34155 16997 ft 311 kts 359°
2026-04-30 18:53 59.57963 11.34304 16579 ft 309 kts 359°
2026-04-30 18:54 59.60091 11.34452 16184 ft 308 kts 359°
2026-04-30 18:54 59.62202 11.34599 15783 ft 306 kts 359°
2026-04-30 18:54 59.64342 11.34748 15384 ft 305 kts 359°
2026-04-30 18:54 59.66447 11.34894 14980 ft 303 kts 359°
2026-04-30 18:55 59.68547 11.35043 14575 ft 302 kts 359°
2026-04-30 18:55 59.72731 11.35340 13815 ft 298 kts 359°
2026-04-30 18:55 59.74811 11.35486 13563 ft 298 kts 359°
2026-04-30 18:56 59.78960 11.35777 13059 ft 297 kts 359°
2026-04-30 18:56 59.81019 11.35923 12804 ft 296 kts 359°
2026-04-30 18:56 59.83068 11.36068 12555 ft 295 kts 359°
2026-04-30 18:57 59.87178 11.36358 12057 ft 294 kts 359°
2026-04-30 18:57 59.89208 11.36501 11805 ft 293 kts 359°
2026-04-30 18:57 59.91228 11.36646 11558 ft 292 kts 359°
2026-04-30 18:58 59.95291 11.36936 11029 ft 290 kts 359°
2026-04-30 18:58 59.97306 11.37081 10770 ft 289 kts 359°
2026-04-30 18:58 59.99280 11.37221 10511 ft 288 kts 359°
2026-04-30 18:59 60.03272 11.37504 10132 ft 286 kts 359°
2026-04-30 19:00 60.09242 11.37935 9709 ft 285 kts 359°
2026-04-30 19:00 60.11223 11.38077 9568 ft 284 kts 359°
2026-04-30 19:00 60.15199 11.38362 9295 ft 284 kts 359°
2026-04-30 19:01 60.19109 11.38646 8928 ft 282 kts 359°
2026-04-30 19:01 60.21072 11.38789 8642 ft 281 kts 359°
2026-04-30 19:02 60.24978 11.39072 8007 ft 278 kts 359°
2026-04-30 19:02 60.28818 11.39351 7367 ft 275 kts 358°
2026-04-30 19:03 60.32597 11.39624 6683 ft 272 kts 358°
2026-04-30 19:03 60.36334 11.39897 6006 ft 268 kts 358°
2026-04-30 19:04 60.39901 11.39679 5712 ft 241 kts 333°
2026-04-30 19:04 60.41470 11.34468 5300 ft 231 kts 265°
2026-04-30 19:05 60.40667 11.28232 4683 ft 229 kts 256°
2026-04-30 19:05 60.38806 11.23291 4161 ft 233 kts 208°
2026-04-30 19:06 60.35747 11.21220 3892 ft 225 kts 198°
2026-04-30 19:06 60.34257 11.20401 3595 ft 215 kts 198°
2026-04-30 19:06 60.31573 11.18881 2985 ft 189 kts 199°
2026-04-30 19:07 60.29270 11.17544 2515 ft 156 kts 199°
2026-04-30 19:07 60.28276 11.16966 2308 ft 147 kts 199°
2026-04-30 19:08 60.26325 11.15834 1966 ft 146 kts 198°
2026-04-30 19:08 60.24370 11.14706 1593 ft 145 kts 198°
2026-04-30 19:08 60.23407 11.14150 1395 ft 144 kts 197°
2026-04-30 19:09 60.21478 11.13051 1045 ft 144 kts 197°
2026-04-30 19:09 60.20540 11.12513 826 ft 138 kts 196°
2026-04-30 19:09 60.19642 11.11982 704 ft 128 kts 194°
2026-04-30 19:10 60.18526 11.11331 708 ft 42 kts 196°
2026-04-30 19:10 60.18020 11.10888 687 ft 37 kts 247°
2026-04-30 19:11 60.18023 11.10799 686 ft 5 kts 284°
2026-04-30 19:11 60.18050 11.10569 688 ft 7 kts 287°
2026-04-30 19:11 60.18079 11.10500 689 ft 5 kts 337°
2026-04-30 19:12 60.18148 11.10511 691 ft 16 kts 15°
2026-04-30 19:12 60.18293 11.10595 696 ft 22 kts 16°
2026-04-30 19:12 60.18436 11.10681 700 ft 20 kts 16°
2026-04-30 19:13 60.18706 11.10838 698 ft 19 kts 17°
2026-04-30 19:13 60.18980 11.10998 698 ft 18 kts 15°
2026-04-30 19:13 60.19114 11.11074 694 ft 20 kts 16°
2026-04-30 19:14 60.19235 11.11149 698 ft 18 kts 15°
2026-04-30 19:14 60.19329 11.11198 689 ft 0 kts 15°
2026-04-30 19:14 60.19346 11.11208 690 ft 4 kts 15°
2026-04-30 19:14 60.19394 11.11189 689 ft 13 kts 307°
2026-04-30 19:15 60.19428 11.10980 688 ft 16 kts 286°
2026-04-30 19:15 60.19492 11.10554 688 ft 15 kts 286°
2026-04-30 19:15 60.19520 11.10370 688 ft 0 kts 290°
2026-04-30 19:16 60.19526 11.10340 688 ft 3 kts 293°
2026-04-30 19:16 60.19542 11.10290 688 ft 4 kts 302°
2026-04-30 19:16 60.19569 11.10143 688 ft 6 kts 287°
2026-04-30 19:17 60.19571 11.10128 688 ft 0 kts 287°